Location: Unspecified
(45.3712°N, 0.6436°E)
Time: 06:15:46
(UTC+02:00)

ISS - Pass Details

Date: 15 July 2018
Orbit: 402 x 408 km, 51.6° (Epoch: 21 July)

Event Time Altitude Azimuth Distance (km) Brightness Sun altitude
Exits shadow 01:49:57 18° 65° (ENE) 1,069 -1.5 -23.0°
Drops below altitude 10° 01:50:57 10° 63° (ENE) 1,470 -0.7 -23.0°
Sets 01:53:03 0° 62° (ENE) 2,335 0.4 -23.0°
